427  
ASUS44 KLCH 251210  
RWRLCH  
REGIONAL WEATHER ROUNDUP  
NATIONAL WEATHER SERVICE LAKE CHARLES LA  
700 AM CDT WED APR 25 2018  
 
NOTE: "FAIR" INDICATES FEW OR NO CLOUDS BELOW 12,000 FEET WITH NO  
SIGNIFICANT WEATHER AND/OR S TO VISIBILITY
.  
 
ACROSS SOUTHEAST TEXAS  
 
CITY SKY/WX TMP DP RH WIND PRES REMARKS
 
BEAUMONT FAIR 56 56 100 CALM 30.04S  
BEAUMONT CITY FAIR 60 58 93 CALM 30.05F FOG  
ORANGE FOG 56 56 100 CALM 30.06F VSB 3/4  
JASPER FAIR 53 53 99 CALM 30.05F  

 
 
ACROSS CENTRAL LOUISIANA  
 
CITY SKY/WX TMP DP RH WIND PRES REMARKS
 
LEESVILLE FAIR 55 54 94 CALM 30.02F  
FULLERTON FAIR 54 54 100 CALM 30.02S  
ALEXANDRIA INT FAIR 55 54 96 SE5 30.04R  
ESLER FIELD FAIR 50 50 100 CALM 30.05S  
DERIDDER FAIR 55 54 95 CALM 30.06F  
OAKDALE FAIR 51 49 95 CALM 30.05S  
OPELOUSAS FAIR 56 56 99 CALM 30.06S  

 
 
ACROSS SOUTHWEST AND SOUTH CENTRAL LOUISIANA  
 
CITY SKY/WX TMP DP RH WIND PRES REMARKS
 
SULPHUR FOG 57 57 100 CALM 30.06S VSB<1/4  
LAKE CHARLES FOG 58 57 97 CALM 30.05S VSB 1  
CHENNAULT INT CLEAR 57 55 94 CALM 30.06R  
CAMERON PHI FOG 64 64 100 CALM 30.06R VSB 0  
DEQUINCY FAIR 53 51 94 CALM 30.05F  
JENNINGS FAIR 59 57 96 CALM 30.05F  
LAFAYETTE FAIR 58 58 100 CALM 30.07R  
NEW IBERIA FAIR 58 56 93 CALM 30.07R  
ABBEVILLE FOG 54 54 100 CALM 30.07R VSB 1/4  
PATTERSON FAIR 58 57 97 CALM 30.08R FOG  
SALT POINT N/A N/A N/A N/A CALM 30.05R  

 
 
SELECTED SITES ACROSS THE REGION  
 
CITY SKY/WX TMP DP RH WIND PRES REMARKS
 
HOUSTON BUSH FAIR 61 60 97 CALM 30.04S  
HOUSTON HOBBY FAIR 61 61 100 SE7 30.04S  
GALVESTON FAIR 66 65 96 CALM 30.07R  
COLLEGE STAT CLEAR 60 58 92 E6 30.04R  
CONROE CLEAR 54 54 100 CALM 30.05R  
HUNTSVILLE PTCLDY 61 58 90 CALM 30.05R  
LUFKIN CLEAR 55 54 96 NW3 30.05R  
SHREVEPORT MOCLDY 55 53 93 W5 30.03R  
MONROE FAIR 55 55 100 CALM 30.06S FOG  
NATCHEZ MS FAIR 52 51 97 CALM 30.08R  
BATON ROUGE FAIR 55 53 93 CALM 30.07R  
N.O. INTL ARPT FAIR 58 58 100 NW3 30.06S FOG  
SLIDELL FAIR 53 50 89 CALM 30.06R  

 
 
MARINE REPORTS  
 
STATION/POSITION TIME SKY/WX TEMP WIND PRES VSBY
 
AIR SEA DIR/SP/G  
(UTC) (F) (DEG/KT/KT) (MB) (MI)  
BUOY 30 S HIGH I 1050 70 70 350/ 2/ 2 1017.8  
WVE H/P(F/S)= 1  
 
SEA RIM ST PARK 1200 63 310/ 1/ 2 1018.2R  
PORT ARTHUR 1136 66 68 330/ 5/ 6 1017.8R  
SABINE PASS N 1136 65 72 300/ 3/ 5 1019.1R  
TEXAS POINT NOT AVBL  
CALCASIEU PASS 1148 66 71 290/ 3/ 3 1016.8R  
LK CHARLES BEACH 1136 61 72 1017.1R  
MARSH ISLAND 1100 68 N/A  
FRESH WATER LOCK 1136 64 73 1017.7R  
AMERADA PASS 1136 62 64 CALM 1017.8R  

 
 
 
CLICK HERE TO GO TO PREVIOUS BULLETINS.

The Nexlab LA Page
The Nexlab TX Page Main Text Page